Location: Raleigh
(35.7720°N, 78.6390°W)
Time: 13:45:14
(UTC-04:00)

Amateur Radio Satellites - All Passes

Search period start: 28 July 2015 13:15
Search period end: 29 July 2015 13:15
Location: Raleigh, 35.7720°N, 78.6390°W

Satellite Date Start Highest point End Downlink Frequencies (MHz)
Time Altitude Azimuth
DX 1 28 Jul 13:15:40 13:17:58 14° 293° (WNW) 13:20:03 434.975-435.025
Cosmos 2491 28 Jul 13:32:52 13:41:41 89° 281° (W) 13:50:29 435.465 / 435.565
ITAMSAT 1 28 Jul 13:47:49 13:51:07 18° 66° (ENE) 13:54:38 435.822/435.867
SPROUT 28 Jul 13:52:09 13:56:20 52° 285° (WNW) 14:00:31 437.525
Oscar 19 28 Jul 14:13:31 14:18:36 66° 259° (WSW) 14:23:42 437.125/150
TISAT 1 28 Jul 14:21:18 14:25:14 39° 287° (WNW) 14:29:08 437.305
O/OREOS (USA 219) 28 Jul 14:23:33 14:25:49 13° 260° (W) 14:27:50 437.305
AIST 1 28 Jul 14:26:40 14:28:50 13° 289° (WNW) 14:30:47
BEESAT 28 Jul 14:34:01 14:38:26 37° 98° (E) 14:42:51 436.000
JAS-2 28 Jul 14:36:38 14:40:55 22° 63° (ENE) 14:45:47 435.910
Gurwin Techsat 1B 28 Jul 14:38:10 14:43:24 61° 74° (ENE) 14:48:39 435.225
Cosmos 2504 28 Jul 14:45:50 14:54:05 61° 80° (E) 15:02:37 435.465 / 435.565
SWISSCUBE 28 Jul 14:53:39 14:58:26 69° 101° (E) 15:03:09 437.505
YUBILEINY 28 Jul 15:06:26 15:09:42 12° 281° (W) 15:12:10 435.215
ITUPSAT 1 28 Jul 15:12:30 15:17:19 84° 282° (WNW) 15:22:05 437.325
CUSAT 1 28 Jul 15:22:09 15:24:32 15° 77° (ENE) 15:27:30 437.405
AO-7 28 Jul 15:22:35 15:29:59 38° 64° (ENE) 15:37:33 29.400- 29.500
ITAMSAT 1 28 Jul 15:25:11 15:30:16 51° 260° (W) 15:35:21 435.822/435.867
Cosmos 2491 28 Jul 15:34:48 15:40:01 16° 297° (WNW) 15:44:37 435.465 / 435.565
BEESAT 28 Jul 16:12:32 16:16:02 20° 292° (WNW) 16:19:24 436.000
DANDE 28 Jul 16:13:24 16:16:38 32° 80° (E) 16:20:49 436.750
STARS 28 Jul 16:17:38 16:21:53 47° 99° (E) 16:26:10 437.465
JAS-2 28 Jul 16:19:54 16:25:29 52° 262° (W) 16:31:48 435.910
Gurwin Techsat 1B 28 Jul 16:21:01 16:23:53 14° 270° (W) 16:26:25 435.225
KKS-1 28 Jul 16:33:52 16:38:17 64° 285° (WNW) 16:42:41 437.445
SWISSCUBE 28 Jul 16:34:05 16:35:46 11° 295° (WNW) 16:37:10 437.505
HORYU 2 28 Jul 16:34:35 16:38:59 70° 258° (WSW) 16:43:27 437.375
Cosmos 2504 28 Jul 16:39:10 16:45:49 26° 275° (W) 16:52:17 435.465 / 435.565
MOZHAYETS 4 28 Jul 16:55:00 16:58:37 23° 94° (E) 17:02:18
CUSAT 1 28 Jul 17:03:14 17:06:58 36° 262° (W) 17:11:45 437.405
AO-7 28 Jul 17:14:45 17:22:41 45° 260° (W) 17:30:33 29.400- 29.500
GONETS M04 28 Jul 17:46:01 17:54:15 46° 76° (ENE) 18:02:35
STARS 28 Jul 17:55:34 17:57:59 14° 293° (WNW) 18:00:10 437.465
DANDE 28 Jul 17:57:49 17:59:46 13° 263° (W) 18:01:42 436.750
CUTE-I 28 Jul 18:02:02 18:06:38 31° 70° (ENE) 18:11:21 437.470
Cosmos 2499 28 Jul 18:26:23 18:32:02 19° 66° (ENE) 18:38:14 435.465 / 435.565
MOZHAYETS 4 28 Jul 18:31:49 18:35:52 29° 288° (WNW) 18:39:48
CUBESAT XI-V 28 Jul 18:37:36 18:41:12 23° 94° (E) 18:44:53 437.345
Cubesat XI-IV 28 Jul 18:43:54 18:49:16 79° 76° (ENE) 18:54:40 437.490
STRAND 1 28 Jul 19:07:44 19:10:18 14° 90° (E) 19:13:09 437.568
SO-50 28 Jul 19:11:11 19:15:20 27° 50° (NE) 19:19:30 436.795
HO-68 28 Jul 19:26:52 19:30:58 17° 60° (ENE) 19:35:25 435.675
BRITE-PL 28 Jul 19:31:42 19:35:20 24° 72° (ENE) 19:38:51 437.365/2234.400
CUTE-I 28 Jul 19:42:02 19:46:42 29° 264° (W) 19:51:17 437.470
GONETS M04 28 Jul 19:43:16 19:50:54 34° 273° (W) 19:58:21
PCSat 28 Jul 19:45:12 19:50:31 55° 60° (ENE) 19:55:50 145.827
VERMONT LUNAR 28 Jul 19:45:53 19:48:46 33° 150° (SSE) 19:51:42 437.305
PRISM 28 Jul 19:51:57 19:55:39 32° 97° (E) 19:59:20 437.425
GOMX 1 28 Jul 20:02:58 20:06:42 29° 73° (ENE) 20:10:24 467.674
DOVE 4 28 Jul 20:11:39 20:14:47 21° 71° (ENE) 20:17:59 437.250
CUBESAT XI-V 28 Jul 20:14:39 20:18:39 29° 289° (WNW) 20:22:33 437.345
Cosmos 2499 28 Jul 20:17:32 20:26:18 83° 264° (W) 20:35:10 435.465 / 435.565
Cubesat XI-IV 28 Jul 20:28:55 20:30:05 10° 272° (W) 20:30:48 437.490
PHONESAT 2.4 28 Jul 20:34:05 20:35:15 11° 142° (SE) 20:36:31 2401.200-2431.200
COMPASS 1 28 Jul 20:39:00 20:42:14 22° 71° (ENE) 20:45:35 437.405
CUTE 1.7 + AOD 2 28 Jul 20:42:56 20:46:54 40° 74° (ENE) 20:50:56 437.475
STRAND 1 28 Jul 20:44:56 20:49:57 56° 287° (WNW) 20:54:54 437.568
SEEDS 28 Jul 20:46:43 20:50:33 35° 73° (ENE) 20:54:28 437.485
CINEMA 3 28 Jul 20:50:02 20:53:21 24° 71° (ENE) 20:56:46 145.822/145.860
CANX-2 28 Jul 20:50:28 20:54:37 57° 75° (ENE) 20:58:50 2200.000
SO-50 28 Jul 20:51:29 20:55:57 34° 247° (WSW) 21:00:14 436.795
BRITE-PL 28 Jul 21:10:00 21:13:50 25° 264° (W) 21:17:23 437.365/2234.400
HO-68 28 Jul 21:10:48 21:17:57 84° 255° (WSW) 21:25:08 435.675
RS-15 28 Jul 21:11:03 21:19:26 28° 105° (ESE) 21:28:25 29.354- 29.394
VERMONT LUNAR 28 Jul 21:22:21 21:25:28 51° 345° (NNW) 21:28:35 437.305
AAUSAT CUBESAT 2 28 Jul 21:22:57 21:27:05 64° 76° (ENE) 21:31:17 437.432
ZACube-1 28 Jul 21:26:02 21:28:37 17° 69° (ENE) 21:31:24 437.345
PRISM 28 Jul 21:28:06 21:30:52 17° 291° (WNW) 21:33:29 437.425
PCSat 28 Jul 21:30:00 21:33:32 17° 254° (WSW) 21:36:49 145.827
DELFI C3 28 Jul 21:37:41 21:40:59 25° 72° (ENE) 21:44:22 145.870
UWE-3 28 Jul 21:39:46 21:43:26 32° 73° (ENE) 21:47:13 435.000/436.395/437.385
GOMX 1 28 Jul 21:41:48 21:44:56 19° 266° (W) 21:47:51 467.674
CUBEBUG 2 28 Jul 21:46:37 21:50:37 50° 75° (ENE) 21:54:43 437.445
FUNcube-1 28 Jul 21:48:27 21:52:01 29° 72° (ENE) 21:55:43 145.935
DOVE 4 28 Jul 21:48:57 21:52:29 25° 265° (W) 21:55:54 437.250
Oscar 11 28 Jul 22:07:27 22:11:46 88° 252° (WSW) 22:16:08 145.826/435.025
PHONESAT 2.4 28 Jul 22:09:20 22:12:49 64° 154° (SSE) 22:16:18 2401.200-2431.200
UKube-1 28 Jul 22:10:27 22:12:48 15° 68° (ENE) 22:15:22 .
Cosmos 2499 28 Jul 22:14:03 22:18:26 14° 279° (W) 22:22:09 435.465 / 435.565
COMPASS 1 28 Jul 22:14:16 22:17:48 25° 265° (W) 22:21:16 437.405
CUTE 1.7 + AOD 2 28 Jul 22:20:41 22:23:03 14° 269° (W) 22:25:13 437.475
SEEDS 28 Jul 22:23:48 22:26:30 16° 268° (W) 22:29:02 437.485
CINEMA 3 28 Jul 22:27:18 22:30:33 21° 266° (W) 22:33:43 145.822/145.860
ISS 28 Jul 22:27:19 22:30:30 59° 136° (SE) 22:33:43 145.825
ESTCUBE 1 28 Jul 22:29:47 22:30:29 10° 66° (ENE) 22:31:30 437.505/2401.250
DX 1 28 Jul 22:30:59 22:34:40 28° 71° (ENE) 22:38:25 434.975-435.025
VELOX 1 28 Jul 22:31:39 22:34:18 16° 68° (ENE) 22:37:09 145.980
M-CUBED/EXP-1 PRIME 28 Jul 22:33:50 22:38:33 54° 104° (ESE) 22:43:11 437.505
HUMSAT D 28 Jul 22:43:33 22:47:33 54° 75° (ENE) 22:51:37 437.325/437.525
ANTELSAT 28 Jul 22:55:42 22:59:12 21° 93° (E) 23:02:51 437.575/2403.000
TIGRISAT 28 Jul 22:55:43 22:59:07 20° 93° (E) 23:02:40 435.000
VERMONT LUNAR 28 Jul 22:59:38 23:02:34 32° 2° (N) 23:05:28 437.305
ZACube-1 28 Jul 23:00:57 23:04:44 33° 263° (W) 23:08:34 437.345
HO-68 28 Jul 23:04:21 23:06:50 11° 273° (W) 23:08:40 435.675
AUBIESAT-1 28 Jul 23:07:03 23:11:49 77° 288° (WNW) 23:16:28 437.475
DELFI C3 28 Jul 23:12:56 23:16:02 20° 266° (W) 23:19:04 145.870
UWE-3 28 Jul 23:17:19 23:20:06 17° 268° (W) 23:22:46 435.000/436.395/437.385
QB50P2 28 Jul 23:18:13 23:19:53 12° 91° (E) 23:21:48 145.880/145.840
RS-15 28 Jul 23:20:07 23:30:59 69° 304° (WNW) 23:42:13 29.354- 29.394
FUNcube-1 28 Jul 23:25:28 23:28:26 18° 267° (W) 23:31:19 145.935
AISAT 28 Jul 23:25:51 23:30:14 71° 76° (ENE) 23:34:38 437.250
CUBEBUG 2 28 Jul 23:26:56 23:27:44 10° 271° (W) 23:28:15 437.445
50 SAT 28 Jul 23:30:42 23:34:33 85° 257° (WSW) 23:38:28 437.505
BUGSAT 1 28 Jul 23:36:57 23:37:52 11° 91° (E) 23:39:03 437.445
UKube-1 28 Jul 23:44:31 23:48:38 41° 261° (W) 23:52:44 .
DUCHIFAT 1 28 Jul 23:45:45 23:49:13 25° 95° (E) 23:52:45 145.980
QB50P1 28 Jul 23:45:56 23:49:29 26° 96° (E) 23:53:07 145.935-145.965
UNISAT 6 28 Jul 23:46:21 23:51:02 79° 102° (ESE) 23:55:46 437.425
Cosmos 2491 28 Jul 23:47:16 23:55:15 40° 74° (ENE) 00:03:20 435.465 / 435.565
PHONESAT 2.4 28 Jul 23:47:32 23:50:54 42° 351° (N) 23:54:15 2401.200-2431.200
NANOSAT C BR1 28 Jul 23:48:43 23:52:20 28° 96° (E) 23:56:01 145.865
CUBEBUG 1 28 Jul 23:52:11 23:56:33 76° 76° (ENE) 00:00:55 437.445
ESTCUBE 1 29 Jul 00:02:20 00:06:51 68° 259° (W) 00:11:23 437.505/2401.250
ISS 29 Jul 00:05:04 00:07:12 16° 332° (NNW) 00:09:18 145.825
VELOX 1 29 Jul 00:06:25 00:10:34 39° 262° (W) 00:14:43 145.980
DX 1 29 Jul 00:07:33 00:10:56 21° 266° (W) 00:14:12 434.975-435.025
YUBILEINY 29 Jul 00:08:12 00:14:35 25° 84° (E) 00:21:22 435.215
M-CUBED/EXP-1 PRIME 29 Jul 00:09:54 00:12:54 16° 298° (WNW) 00:15:42 437.505
BEESAT 2 29 Jul 00:15:39 00:18:49 23° 112° (ESE) 00:22:06 435.950
POLYITAN 1 29 Jul 00:26:28 00:30:46 85° 102° (ESE) 00:35:03 437.675
TIGRISAT 29 Jul 00:31:42 00:35:57 34° 288° (WNW) 00:40:10 435.000
ANTELSAT 29 Jul 00:31:50 00:36:03 33° 288° (WNW) 00:40:14 437.575/2403.000
AIST 1 29 Jul 00:34:05 00:38:20 68° 264° (W) 00:42:32
VERMONT LUNAR 29 Jul 00:36:27 00:39:35 64° 17° (NNE) 00:42:42 437.305
SPROUT 29 Jul 00:43:02 00:47:18 81° 77° (ENE) 00:51:35 437.525
POPSAT HIP 1 29 Jul 00:45:14 00:49:25 58° 285° (WNW) 00:53:35 437.405
QB50P2 29 Jul 00:51:59 00:56:04 46° 286° (WNW) 01:00:08 145.880/145.840
BEESAT 3 29 Jul 01:00:05 01:04:08 79° 300° (WNW) 01:08:15 437.485
BUGSAT 1 29 Jul 01:09:44 01:13:39 47° 286° (WNW) 01:17:34 437.445
TISAT 1 29 Jul 01:10:01 01:14:12 79° 258° (WSW) 01:18:23 437.305
DUCHIFAT 1 29 Jul 01:21:32 01:24:56 23° 289° (WNW) 01:28:13 145.980
QB50P1 29 Jul 01:21:54 01:25:15 22° 289° (WNW) 01:28:28 145.935-145.965
AIST 2 29 Jul 01:22:39 01:26:13 27° 113° (ESE) 01:29:52 435.215
NANOSAT C BR1 29 Jul 01:24:48 01:28:01 21° 290° (WNW) 01:31:09 145.865
PHONESAT 2.4 29 Jul 01:25:57 01:29:16 39° 7° (N) 01:32:34 2401.200-2431.200
BEESAT 29 Jul 01:37:49 01:41:59 32° 71° (ENE) 01:46:15 436.000
RS-15 29 Jul 01:38:04 01:46:09 21° 332° (NNW) 01:54:05 29.354- 29.394
Cosmos 2491 29 Jul 01:44:11 01:52:06 39° 272° (W) 01:59:52 435.465 / 435.565
BEESAT 2 29 Jul 01:53:11 01:56:45 27° 307° (NW) 02:00:18 435.950
SWISSCUBE 29 Jul 01:57:13 02:01:54 56° 74° (ENE) 02:06:38 437.505
YUBILEINY 29 Jul 02:02:15 02:10:50 62° 281° (W) 02:19:28 435.215
VERMONT LUNAR 29 Jul 02:13:35 02:16:11 23° 212° (SSW) 02:18:43 437.305
ITUPSAT 1 29 Jul 02:16:13 02:21:01 81° 75° (ENE) 02:25:52 437.325
Oscar 19 29 Jul 02:27:55 02:33:00 56° 100° (E) 02:38:06 437.125/150
O/OREOS (USA 219) 29 Jul 02:51:30 02:55:57 80° 290° (WNW) 03:00:28 437.305
Gurwin Techsat 1B 29 Jul 02:57:43 03:02:20 31° 96° (E) 03:07:02 435.225
AIST 2 29 Jul 03:01:12 03:04:46 25° 308° (NW) 03:08:18 435.215
PHONESAT 2.4 29 Jul 03:03:55 03:07:24 75° 205° (SSW) 03:10:52 2401.200-2431.200
STARS 29 Jul 03:12:00 03:15:44 29° 71° (ENE) 03:19:32 437.465
Cosmos 2504 29 Jul 03:13:30 03:20:01 45° 90° (E) 03:27:00 435.465 / 435.565
BEESAT 29 Jul 03:16:02 03:19:52 23° 266° (W) 03:23:37 436.000
KKS-1 29 Jul 03:28:54 03:33:18 81° 78° (ENE) 03:37:45 437.445
AO-7 29 Jul 03:30:56 03:33:01 11° 87° (E) 03:35:55 29.400- 29.500
JAS-2 29 Jul 03:31:38 03:38:17 31° 93° (E) 03:45:03 435.910
SWISSCUBE 29 Jul 03:37:55 03:40:11 13° 270° (W) 03:42:09 437.505
ITAMSAT 1 29 Jul 03:40:48 03:45:58 73° 101° (E) 03:51:08 435.822/435.867
MOZHAYETS 4 29 Jul 03:54:59 03:57:47 17° 68° (ENE) 04:00:47
RS-15 29 Jul 03:59:47 04:04:56 14° 7° (N) 04:10:21 29.354- 29.394
Oscar 19 29 Jul 04:08:46 04:11:57 16° 294° (WNW) 04:14:55 437.125/150
CUSAT 1 29 Jul 04:28:26 04:30:11 14° 97° (E) 04:31:53 437.405
HORYU 2 29 Jul 04:29:01 04:32:51 28° 96° (E) 04:36:44 437.375
Gurwin Techsat 1B 29 Jul 04:37:42 04:42:16 29° 291° (WNW) 04:46:43 435.225
PHONESAT 2.4 29 Jul 04:43:09 04:45:01 14° 217° (SW) 04:46:47 2401.200-2431.200
STARS 29 Jul 04:48:51 04:52:13 21° 266° (W) 04:55:27 437.465
ISS 29 Jul 04:57:34 05:00:10 22° 31° (NNE) 05:02:48 145.825
Cosmos 2504 29 Jul 05:06:35 05:12:32 27° 289° (WNW) 05:18:35 435.465 / 435.565
JAS-2 29 Jul 05:16:00 05:23:31 52° 289° (WNW) 05:30:57 435.910
AO-7 29 Jul 05:18:57 05:27:19 77° 105° (ESE) 05:35:37 29.400- 29.500
JUGNU 29 Jul 05:21:02 05:23:40 13° 170° (S) 05:26:22 437.505
ITAMSAT 1 29 Jul 05:22:42 05:24:56 12° 296° (WNW) 05:26:53 435.822/435.867
DANDE 29 Jul 05:23:13 05:27:06 59° 98° (E) 05:30:09 436.750
MOZHAYETS 4 29 Jul 05:30:16 05:34:41 43° 262° (W) 05:39:07
CUBESAT XI-V 29 Jul 05:38:53 05:41:52 18° 69° (ENE) 05:45:02 437.345
HORYU 2 29 Jul 06:05:44 06:09:22 24° 290° (WNW) 06:12:54 437.375
CUSAT 1 29 Jul 06:11:01 06:12:39 13° 283° (WNW) 06:14:02 437.405
RS-15 29 Jul 06:12:45 06:22:47 33° 40° (NE) 06:33:25 29.354- 29.394
STRAND 1 29 Jul 06:20:57 06:24:04 17° 66° (ENE) 06:27:24 437.568
CUTE-I 29 Jul 06:23:10 06:25:58 15° 90° (E) 06:29:03 437.470
ISS 29 Jul 06:33:40 06:36:40 34° 227° (SW) 06:39:38 145.825
PRISM 29 Jul 06:40:00 06:42:43 17° 69° (ENE) 06:45:34 437.425
GONETS M04 29 Jul 06:43:02 06:51:29 58° 92° (E) 06:59:58
Cosmos 2499 29 Jul 07:03:42 07:05:54 12° 79° (E) 07:08:44 435.465 / 435.565
Cubesat XI-IV 29 Jul 07:04:26 07:09:24 40° 98° (E) 07:14:22 437.490
SRMSAT 29 Jul 07:06:11 07:08:45 13° 170° (S) 07:11:22 437.500
JUGNU 29 Jul 07:08:22 07:11:56 16° 180° (S) 07:15:29 437.505
AO-7 29 Jul 07:13:13 07:19:23 23° 302° (WNW) 07:25:12 29.400- 29.500
CUBESAT XI-V 29 Jul 07:14:35 07:19:01 41° 262° (W) 07:23:27 437.345
STRAND 1 29 Jul 07:57:52 08:02:53 52° 260° (W) 08:07:55 437.568
CUTE-I 29 Jul 08:01:17 08:06:30 58° 287° (WNW) 08:11:41 437.470
GOMX 1 29 Jul 08:08:45 08:09:57 11° 91° (E) 08:11:31 467.674
PRISM 29 Jul 08:14:06 08:17:55 33° 262° (W) 08:21:43 437.425
RS-15 29 Jul 08:24:45 08:36:37 79° 243° (WSW) 08:48:49 29.354- 29.394
CANX-2 29 Jul 08:40:34 08:42:16 12° 90° (E) 08:44:13 2200.000
GONETS M04 29 Jul 08:41:41 08:48:54 27° 291° (WNW) 08:55:50
HO-68 29 Jul 08:42:55 08:48:04 22° 92° (E) 08:53:29 435.675
Cubesat XI-IV 29 Jul 08:45:07 08:49:17 23° 292° (WNW) 08:53:17 437.490
Cosmos 2499 29 Jul 08:50:39 08:57:53 88° 96° (E) 09:05:43 435.465 / 435.565
SRMSAT 29 Jul 08:53:34 08:57:10 17° 180° (S) 09:00:46 437.500
JUGNU 29 Jul 08:57:35 09:00:12 13° 190° (S) 09:02:45 437.505
AAUSAT CUBESAT 2 29 Jul 09:10:36 09:12:20 13° 90° (E) 09:14:17 437.432
BRITE-PL 29 Jul 09:15:52 09:20:11 68° 283° (WNW) 09:24:47 437.365/2234.400
M-CUBED/EXP-1 PRIME 29 Jul 09:19:23 09:22:58 39° 68° (ENE) 09:26:55 437.505
BEESAT 3 29 Jul 09:21:40 09:25:00 25° 52° (NE) 09:28:20 437.485
SO-50 29 Jul 09:24:21 09:26:54 15° 109° (ESE) 09:29:43 436.795
CUBEBUG 2 29 Jul 09:41:26 09:43:58 15° 91° (E) 09:46:44 437.445
GOMX 1 29 Jul 09:44:02 09:48:25 58° 285° (WNW) 09:53:07 467.674
DOVE 4 29 Jul 09:48:54 09:53:29 86° 287° (WNW) 09:58:20 437.250
AUBIESAT-1 29 Jul 09:51:48 09:55:39 85° 73° (ENE) 09:59:53 437.475
TIGRISAT 29 Jul 09:53:38 09:55:12 12° 66° (ENE) 09:57:01 435.000
ANTELSAT 29 Jul 09:53:40 09:55:29 13° 67° (ENE) 09:57:32 437.575/2403.000
Oscar 11 29 Jul 09:58:27 10:01:41 21° 93° (E) 10:05:01 145.826/435.025
COMPASS 1 29 Jul 09:59:37 10:03:49 62° 100° (E) 10:07:58 437.405
CUTE 1.7 + AOD 2 29 Jul 10:06:24 10:10:40 66° 284° (WNW) 10:14:54 437.475
SEEDS 29 Jul 10:09:00 10:13:17 77° 282° (WNW) 10:17:31 437.485
BEESAT 2 29 Jul 10:14:09 10:18:14 72° 60° (ENE) 10:22:13 435.950
CANX-2 29 Jul 10:14:22 10:18:31 46° 285° (WNW) 10:22:36 2200.000
CINEMA 3 29 Jul 10:22:59 10:27:39 84° 283° (WNW) 10:32:31 145.822/145.860
PCSat 29 Jul 10:23:39 10:29:03 89° 294° (WNW) 10:34:31 145.827
HO-68 29 Jul 10:29:15 10:36:19 62° 289° (WNW) 10:43:21 435.675
HUMSAT D 29 Jul 10:32:29 10:33:49 11° 90° (E) 10:35:25 437.325/437.525
DUCHIFAT 1 29 Jul 10:36:48 10:38:45 13° 68° (ENE) 10:40:54 145.980
QB50P1 29 Jul 10:37:13 10:39:23 14° 68° (ENE) 10:41:45 145.935-145.965
NANOSAT C BR1 29 Jul 10:39:41 10:41:59 15° 69° (ENE) 10:44:29 145.865
RS-15 29 Jul 10:40:52 10:47:45 16° 259° (WSW) 10:53:36 29.354- 29.394
UNISAT 6 29 Jul 10:42:39 10:46:45 46° 74° (ENE) 10:50:59 437.425
SRMSAT 29 Jul 10:42:49 10:45:36 13° 190° (S) 10:48:19 437.500
AAUSAT CUBESAT 2 29 Jul 10:44:12 10:48:12 43° 286° (WNW) 10:52:11 437.432
Cosmos 2499 29 Jul 10:48:31 10:52:29 14° 298° (WNW) 10:56:00 435.465 / 435.565
ZACube-1 29 Jul 10:51:33 10:55:59 54° 100° (E) 11:00:29 437.345
DELFI C3 29 Jul 10:53:33 10:57:36 63° 100° (E) 11:01:35 145.870
M-CUBED/EXP-1 PRIME 29 Jul 10:56:03 10:58:06 13° 266° (W) 11:00:01 437.505
BEESAT 3 29 Jul 10:59:34 11:02:51 24° 248° (WSW) 11:06:02 437.485
SO-50 29 Jul 11:02:23 11:07:01 53° 303° (WNW) 11:11:48 436.795
UWE-3 29 Jul 11:07:47 11:12:23 75° 283° (WNW) 11:17:02 435.000/436.395/437.385
50 SAT 29 Jul 11:10:28 11:12:22 13° 91° (E) 11:14:29 437.505
FUNcube-1 29 Jul 11:14:43 11:19:15 84° 283° (WNW) 11:23:50 145.935
CUBEBUG 2 29 Jul 11:16:28 11:20:54 46° 286° (WNW) 11:25:23 437.445
POLYITAN 1 29 Jul 11:16:38 11:20:35 42° 74° (ENE) 11:24:34 437.675
AISAT 29 Jul 11:20:29 11:23:15 17° 93° (E) 11:26:11 437.250
AIST 2 29 Jul 11:24:39 11:28:51 88° 242° (WSW) 11:32:57 435.215
TIGRISAT 29 Jul 11:27:20 11:31:31 52° 261° (W) 11:35:48 435.000
O/OREOS (USA 219) 29 Jul 11:27:33 11:28:51 11° 54° (NE) 11:30:24 437.305
ANTELSAT 29 Jul 11:27:40 11:31:51 50° 261° (W) 11:36:07 437.575/2403.000
Oscar 11 29 Jul 11:34:06 11:37:53 29° 288° (WNW) 11:41:36 145.826/435.025
UKube-1 29 Jul 11:34:41 11:38:42 37° 98° (E) 11:42:43 .
POPSAT HIP 1 29 Jul 11:34:50 11:39:00 70° 76° (ENE) 11:43:11 437.405
QB50P2 29 Jul 11:41:36 11:45:48 88° 78° (ENE) 11:50:01 145.880/145.840
CUBEBUG 1 29 Jul 11:45:01 11:47:47 17° 93° (E) 11:50:41 437.445
BUGSAT 1 29 Jul 11:56:32 12:00:36 77° 77° (ENE) 12:04:39 437.445
DX 1 29 Jul 11:57:24 12:01:45 80° 102° (ESE) 12:06:05 434.975-435.025
ESTCUBE 1 29 Jul 11:58:15 12:02:12 30° 96° (E) 12:06:10 437.505/2401.250
VELOX 1 29 Jul 11:59:25 12:03:39 45° 99° (E) 12:07:53 145.980
HUMSAT D 29 Jul 12:05:42 12:09:54 51° 285° (WNW) 12:14:05 437.325/437.525
DUCHIFAT 1 29 Jul 12:10:14 12:14:13 43° 261° (W) 12:18:13 145.980
PCSat 29 Jul 12:10:49 12:13:21 13° 316° (NW) 12:15:38 145.827
QB50P1 29 Jul 12:10:59 12:14:57 40° 262° (W) 12:18:55 145.935-145.965
NANOSAT C BR1 29 Jul 12:13:37 12:17:32 38° 262° (W) 12:21:27 145.865
YUBILEINY 29 Jul 12:15:48 12:24:29 59° 79° (E) 12:33:11 435.215
UNISAT 6 29 Jul 12:21:54 12:23:53 13° 270° (W) 12:25:39 437.425
ZACube-1 29 Jul 12:29:42 12:31:56 13° 292° (WNW) 12:33:58 437.345
SPROUT 29 Jul 12:33:35 12:36:23 17° 93° (E) 12:39:19 437.525
50 SAT 29 Jul 12:43:27 12:47:08 36° 287° (WNW) 12:50:46 437.505
Cosmos 2491 29 Jul 12:44:25 12:52:44 51° 90° (E) 13:01:07 435.465 / 435.565
POLYITAN 1 29 Jul 12:54:40 12:56:45 13° 269° (W) 12:58:36 437.675
AISAT 29 Jul 12:55:55 12:59:59 36° 287° (WNW) 13:04:00 437.250
TISAT 1 29 Jul 12:58:05 13:01:05 19° 94° (E) 13:04:13 437.305
AIST 1 29 Jul 13:00:04 13:04:26 81° 97° (E) 13:08:48
O/OREOS (USA 219) 29 Jul 13:04:17 13:08:50 68° 253° (WSW) 13:13:24 437.305
Cosmos 2504 29 Jul 13:04:50 13:07:56 13° 62° (ENE) 13:11:45 435.465 / 435.565
